This is the latest recevied weather packets stored in our database for station/object KC5EZZ-2. If no packets are shown the sender has not sent any weather packets the latest 10 day(s).
| Time | Temp. | Humidity | Pressure | Rain* | Wind** | Luminosity | Snow |
|---|---|---|---|---|---|---|---|
| 1777917095 | 28.33° C | - | - | 0 mm | 5.36 m/s, 193° | - | - |
| 1777916795 | 27.78° C | - | - | 0 mm | 4.02 m/s, 167° | - | - |
| 1777916493 | 27.22° C | - | - | 0 mm | 5.36 m/s, 160° | - | - |
| 1777916191 | 27.22° C | - | - | 0 mm | 4.92 m/s, 187° | - | - |
| 1777915891 | 28.33° C | - | - | 0 mm | 5.36 m/s, 207° | - | - |
| 1777915589 | 28.33° C | - | - | 0 mm | 4.92 m/s, 165° | - | - |
| 1777915289 | 27.22° C | - | - | 0 mm | 4.47 m/s, 163° | - | - |
| 1777914990 | 27.22° C | - | - | 0 mm | 4.02 m/s, 172° | - | - |
| 1777914687 | 27.22° C | - | - | 0 mm | 4.02 m/s, 181° | - | - |
| 1777914387 | 26.67° C | - | - | 0 mm | 5.36 m/s, 212° | - | - |
| 1777914088 | 26.67° C | - | - | 0 mm | 5.36 m/s, 194° | - | - |
| 1777913785 | 26.67° C | - | - | 0 mm | 4.92 m/s, 188° | - | - |
| 1777913486 | 26.11° C | - | - | 0 mm | 4.92 m/s, 197° | - | - |
| 1777913186 | 26.11° C | - | - | 0 mm | 4.92 m/s, 191° | - | - |
| 1777912883 | 25.56° C | - | - | 0 mm | 5.81 m/s, 195° | - | - |
| 1777912584 | 26.11° C | - | - | 0 mm | 4.92 m/s, 174° | - | - |
| 1777912284 | 25.56° C | - | - | 0 mm | 5.36 m/s, 190° | - | - |
| 1777911982 | 25° C | - | - | 0 mm | 4.47 m/s, 193° | - | - |
| 1777911682 | 24.44° C | - | - | 0 mm | 4.47 m/s, 191° | - | - |
| 1777911382 | 24.44° C | - | - | 0 mm | 5.36 m/s, 191° | - | - |
| 1777911080 | 24.44° C | - | - | 0 mm | 4.02 m/s, 204° | - | - |
| 1777910780 | 23.89° C | - | - | 0 mm | 4.92 m/s, 203° | - | - |
| 1777910480 | 23.89° C | - | - | 0 mm | 4.92 m/s, 201° | - | - |
| 1777910178 | 23.33° C | - | - | 0 mm | 4.47 m/s, 191° | - | - |
| 1777909878 | 23.89° C | - | - | 0 mm | 4.47 m/s, 142° | - | - |
* Rain latest hour (hover to see other rain measurements)
** Current wind speed in m/s (hover to see current wind gust speed)